Regional Weather Roundup
Issued by NWS

Home | Current Version | Previous Version | Graphics & Text | Print | Product List | Glossary Off
Versions: 1 2 3 4 5 6 7 8 9 10 11 12 13 14 15 16 17 18 19 20 21 22 23 24 25 26 27 28 29 30 31 32 33 34 35 36 37 38 39 40 41 42 43 44 45 46 47 48 49 50

000
ASUS43 KTOP 271659
RWRKS

WEATHER ROUNDUP FOR KANSAS
NATIONAL WEATHER SERVICE GOODLAND KS
1100 AM CST TUE JAN 27 2015

NOTE:  "FAIR" INDICATES FEW OR NO CLOUDS BELOW 12,000 FEET WITH NO
SIGNIFICANT WEATHER AND/OR OBSTRUCTIONS TO VISIBILITY.

KSZ001>006-013>018-027>032-041>047-271800-
NORTHWEST KANSAS

CITY           SKY/WX    TMP DP  RH WIND       PRES   REMARKS
GOODLAND       SUNNY     70  27  20 W12       30.10F
HAYS           SUNNY     57  34  41 W8        30.09S
HILL CITY      SUNNY     55  33  43 SW3       30.07F
RUSSELL        SUNNY     52  33  48 SW9       30.06F
$$

KSZ061>065-074>080-084>089-271800-
SOUTHWEST KANSAS

CITY           SKY/WX    TMP DP  RH WIND       PRES   REMARKS
DODGE CITY     SUNNY     63  32  31 W12       30.14S
ELKHART          N/A     67  33  28 SW9         N/A
GARDEN CITY    SUNNY     60  31  33 W12       30.14S
GREAT BEND     SUNNY     57  36  44 SW8       30.10S
LIBERAL        SUNNY     57  37  47 S5        30.20S
$$

KSZ066>073-081>083-090>101-271800-
SOUTHEAST KANSAS

CITY           SKY/WX    TMP DP  RH WIND       PRES   REMARKS
CHANUTE        SUNNY     51  35  54 SE7       30.18R
COFFEYVILLE    SUNNY     54  37  52 E6        30.18S
HUTCHINSON     SUNNY     60  35  39 S14       30.12S
MEDICINE LODGE   N/A     58  33  39 S7        30.13F
NEWTON         SUNNY     59  32  36 S14       30.15S
PARSONS        SUNNY     54  35  48 VRB5      30.19R
WICHITA INTL   MOSUNNY   58  34  40 S12       30.13S
WICHITA JABRA  SUNNY     60  32  34 S14       30.13S
WICHITA MCCONL SUNNY     59  32  36 S10       30.14S
WINFIELD       SUNNY     60  31  33 S13       30.16S
$$

KSZ007>012-019>026-033>040-048>060-102>105-271800-
NORTHEAST KANSAS

CITY           SKY/WX    TMP DP  RH WIND       PRES   REMARKS
CONCORDIA      SUNNY     54  34  46 SE20      30.09F
EMPORIA        SUNNY     51  35  54 SE10      30.15S
LAWRENCE       SUNNY     45  33  63 SE8       30.18R
MANHATTAN      SUNNY     51  34  52 E6        30.14S
OLATHE IND     SUNNY     46  34  62 E6        30.18R
OLATHE EXE     SUNNY     46  34  62 SE6       30.17R
SALINA         SUNNY     56  34  43 S12       30.11S
TOPEKA BILLARD SUNNY     48  34  58 VRB3      30.18R
TOPEKA FORBES  SUNNY     49  34  56 SE8       30.16R
$$



USA.gov is the U.S. government's official web portal to all federal, state and local government web resources and services.